Back to catalog

YAOGAN 9B DEB

AliveMilitaryLEO
NORAD 38303·DEBRIS·🇨🇳 China

Launched Mar 5, 2010 from Jiuquan Satellite Launch Center

Loading…

Next Passes (next 24 hours)

TLE

FreshSource: Space-Track

Epoch: Sep 13, 2026, 18:46 UTC

1 38303U 10009G   26256.78223452  .00004984  00000-0  15488-2 0  9994
2 38303  63.3444  74.8097 0465951  26.5781 335.8361 13.94029604114550

Track YAOGAN 9B DEB in real time with AllMySat

Download on the App Store